Theta_e
317 317 317 317 317 319 321 322 323 326 339 342 342 340 340 342 342 341 339 337 335 333 332 332 333 332 332 332 331 330 328 327 325 322 318 315 314 312 311 312 312 312 312
314 315 316 316 316 316 318 318 319 321 322 330 341 341 339 338 339 340 341 340 338 336 334 333 333 332 332 332 332 331 330 328 325 322 314 311 312 311 310 310 310 310 310
312 311 312 313 313 313 314 316 318 318 319 320 324 340 338 336 336 335 337 339 339 339 337 335 334 333 333 332 332 332 330 328 325 324 317 317 317 309 309 309 308 309 309
313 312 312 313 312 313 312 313 314 315 317 318 319 327 338 337 338 338 336 335 335 335 336 338 336 334 334 333 332 332 330 329 324 322 319 320 316 311 307 307 307 308 308
311 312 313 314 314 314 313 312 311 312 314 315 315 317 318 323 335 337 336 336 335 335 335 333 335 336 334 334 333 332 331 330 326 321 318 317 317 312 309 304 305 306 307
312 313 315 316 316 316 314 314 312 311 311 311 312 313 315 318 324 330 331 330 331 333 335 335 332 331 331 332 332 332 331 330 328 324 319 318 317 313 309 309 303 303 304
314 313 314 314 315 316 316 316 315 314 313 312 312 312 313 315 319 324 329 330 331 331 332 332 331 329 328 327 328 329 331 330 329 325 322 317 317 316 313 310 304 302 297
315 315 315 315 315 315 314 313 313 314 314 314 314 313 312 313 314 316 320 325 328 329 330 330 330 328 327 326 326 327 328 329 328 327 324 320 315 314 311 310 305 300 294
315 314 314 315 315 314 312 311 311 312 312 313 313 314 315 315 315 315 316 319 323 324 325 326 326 324 324 324 326 326 325 327 326 325 322 319 314 310 308 306 305 305 301
315 313 312 313 313 311 310 309 309 310 310 311 311 312 312 313 314 315 316 317 317 318 319 320 319 319 319 317 317 320 321 321 321 319 318 314 309 304 301 300 301 303 301
313 312 312 312 310 309 308 307 307 307 308 310 311 311 312 312 312 311 311 312 313 313 313 313 312 311 312 313 314 314 316 316 315 313 310 306 303 301 300 300 300 300 299
311 312 311 310 308 307 306 304 305 305 306 308 308 307 307 306 305 304 305 306 306 306 307 308 307 307 308 308 308 308 307 306 305 303 301 300 298 296 296 296 296 296 296
311 311 308 307 306 305 303 303 302 302 304 304 303 302 302 301 299 299 299 299 300 300 300 301 301 300 299 300 300 300 300 298 297 296 296 294 295 294 293 293 294 293 293
310 309 307 305 304 303 302 301 301 301 302 302 300 299 298 297 297 296 296 296 296 297 297 296 296 295 295 295 295 295 294 294 293 293 292 292 293 293 293 292 291 291 290
309 308 306 304 304 302 301 301 300 300 300 300 298 297 297 296 295 295 294 294 294 294 294 294 294 293 293 293 293 292 292 292 292 292 292 292 292 291 291 290 289 289 289
308 305 304 303 302 302 301 300 299 298 298 298 297 297 296 295 294 294 294 294 293 293 293 293 293 293 293 292 291 292 292 292 290 289 289 289 290 289 288 288 289 288 288
307 305 302 302 302 301 301 299 298 298 297 297 296 295 294 293 293 292 291 290 291 291 291 291 292 291 292 291 292 293 292 290 289 288 287 286 285 285 285 286 286 286 287
305 303 302 300 300 300 300 299 298 297 296 295 295 294 292 291 291 291 289 290 290 289 289 289 289 290 290 291 291 291 290 289 288 287 286 285 284 284 286 287 287 287 287
302 302 301 300 300 300 299 298 297 296 294 294 294 292 291 290 290 290 289 289 289 289 288 289 288 287 288 288 286 286 285 285 284 284 284 285 285 286 287 286 287 286 285
300 299 298 298 298 297 297 296 296 295 294 293 292 291 291 290 290 290 289 290 289 288 289 289 289 287 287 287 287 286 286 285 285 285 284 285 285 285 285 284 284 284 283
298 297 297 297 296 296 296 295 293 292 292 291 291 290 290 291 290 289 290 290 288 288 288 289 288 288 287 287 287 286 285 285 285 284 284 283 284 283 283 283 282 283 284
297 296 296 296 295 295 294 292 291 291 291 291 291 290 290 290 291 290 289 287 287 287 286 286 286 286 286 286 286 285 285 284 283 283 283 283 283 282 282 282 283 284 284
297 296 295 295 294 293 293 292 291 291 291 291 291 291 291 290 288 287 287 286 286 285 284 284 284 284 284 284 284 284 284 283 283 282 282 282 281 281 282 282 283 282 282
297 296 295 294 292 292 292 292 292 292 292 292 292 290 288 287 287 286 286 286 285 284 284 284 284 284 284 284 284 284 283 283 282 282 282 281 281 281 282 282 282 282 282
297 296 295 294 292 292 292 292 292 293 293 293 289 287 287 286 285 285 285 285 284 284 284 284 283 283 284 284 284 283 282 282 281 282 280 280 281 281 282 282 282 282 282
297 296 295 294 292 292 293 293 293 293 292 288 287 286 286 285 285 285 285 285 283 283 283 283 283 283 282 283 282 282 282 281 281 280 279 280 281 281 281 281 281 281 281
Wind_Speed
4 9 13 11 14 18 16 16 14 16 17 25 24 23 25 23 21 19 20 22 23 24 27 28 26 26 27 27 29 25 24 23 20 19 14 14 17 20 20 21 22 21 23
6 8 6 2 6 8 10 13 15 14 20 20 22 23 23 25 30 27 22 23 22 25 28 30 30 29 29 28 28 32 24 26 24 17 11 2 9 22 25 24 24 24 24
6 7 9 8 5 8 10 10 17 21 16 20 19 21 16 16 18 26 31 31 25 21 25 28 30 30 28 30 29 34 34 24 28 29 11 3 5 5 16 28 25 25 25
1 5 8 9 6 4 7 11 12 10 13 16 18 15 23 19 22 23 22 23 24 28 31 20 28 29 30 29 30 28 35 26 26 28 33 19 3 4 1 12 27 26 24
7 7 5 7 5 4 5 3 8 14 16 12 10 13 14 14 22 21 18 17 18 19 21 22 28 27 31 32 31 28 28 36 29 30 26 31 23 13 2 3 8 22 26
7 7 7 10 9 7 7 7 5 4 3 9 13 15 16 16 13 12 14 14 16 19 19 19 19 24 28 28 30 31 32 28 33 32 31 27 15 16 10 2 3 7 13
7 7 6 7 8 8 9 9 10 9 8 6 4 9 12 13 15 12 11 11 13 16 15 16 17 20 21 25 29 29 32 33 29 33 31 30 29 19 23 11 3 3 3
6 6 6 5 7 7 9 9 9 10 9 8 7 6 5 5 7 8 8 9 8 7 9 12 14 17 19 21 22 26 30 28 32 33 28 28 26 26 19 14 13 1 3
6 6 6 8 7 10 10 9 10 10 10 9 7 5 6 4 5 4 5 4 4 4 4 5 7 14 11 13 16 20 23 27 28 29 26 22 21 21 20 17 16 9 4
6 5 6 8 10 10 8 9 8 9 9 9 9 7 6 5 4 3 3 2 2 3 4 6 8 8 11 11 13 14 15 15 17 17 18 18 16 15 13 11 10 9 7
6 5 6 11 9 8 8 9 9 9 9 8 9 10 10 10 9 8 6 6 5 3 4 6 4 4 3 4 7 9 11 12 12 11 12 12 11 10 9 8 8 9 10
6 5 7 8 9 8 9 10 10 10 9 8 9 11 11 11 11 12 10 9 7 6 6 3 3 3 4 3 2 1 2 4 5 6 8 9 7 8 9 10 10 10 10
6 6 6 7 8 8 7 8 10 10 9 10 10 11 12 11 11 9 9 9 9 10 10 8 8 6 6 4 4 2 3 3 3 5 9 11 12 13 11 10 10 8 7
6 5 6 7 8 6 6 8 9 9 9 10 11 11 11 11 11 11 12 12 12 12 13 13 13 11 10 9 10 10 11 11 11 11 12 12 12 13 11 9 6 6 7
7 5 5 6 9 7 7 7 8 9 9 10 10 10 11 11 14 15 16 16 16 17 17 18 17 15 15 12 11 15 17 18 18 16 15 11 11 10 9 7 4 4 6
7 6 5 6 7 8 7 7 8 9 9 11 10 10 11 11 14 14 16 16 18 19 21 24 23 22 20 18 16 18 20 17 17 18 14 12 12 9 10 3 3 2 4
6 6 7 6 7 7 7 7 8 8 10 10 10 10 10 11 13 14 14 16 17 21 24 23 22 22 20 18 15 14 16 15 14 13 11 9 7 4 4 1 0 1 1
5 6 8 9 7 8 8 8 8 9 11 11 10 11 10 13 16 16 16 18 20 21 23 22 21 20 17 14 13 12 12 11 9 8 7 6 6 5 2 5 3 1 4
6 8 12 12 8 8 7 9 9 10 10 10 11 11 14 16 17 18 18 19 20 19 20 18 17 17 14 12 13 12 11 9 9 9 9 6 4 5 5 3 3 3 3
11 13 12 10 9 7 7 10 10 11 12 10 12 15 16 17 17 18 17 18 19 18 16 16 14 13 14 10 8 5 3 7 6 5 4 5 4 5 5 5 3 3 3
13 12 10 9 10 8 9 11 11 11 12 13 15 16 17 17 17 17 17 16 18 17 14 14 12 11 9 9 9 9 5 4 4 3 2 3 5 6 5 4 2 3 5
12 11 10 10 9 8 11 12 15 15 16 16 17 17 17 16 16 15 13 13 12 12 10 9 8 7 6 5 6 7 7 6 4 4 3 3 7 6 5 3 3 5 6
13 12 11 10 8 8 11 15 16 18 18 18 18 14 15 14 12 11 10 8 7 8 7 6 6 4 3 4 6 7 7 7 6 4 6 5 6 5 3 2 6 5 4
13 13 13 11 9 10 12 15 19 19 19 16 15 13 12 12 11 9 7 7 6 6 5 4 4 2 2 1 2 2 3 3 3 7 8 7 6 5 5 5 5 5 7
14 14 16 12 11 14 15 17 21 19 16 15 15 14 13 12 11 9 7 6 5 4 6 4 2 2 3 1 2 5 6 7 7 9 5 6 5 5 5 5 6 6 7
17 14 12 14 14 15 18 20 18 17 17 17 16 16 14 13 11 10 8 5 5 4 4 3 2 1 2 2 3 4 5 6 6 7 5 4 5 5 7 8 9 9 8
Wind_Direction
225 242 251 234 231 234 226 240 233 222 204 197 201 209 225 227 217 221 227 226 222 219 218 224 222 221 221 226 218 219 223 217 217 208 214 209 225 227 222 220 218 217 218
235 213 150 253 276 274 257 244 245 239 223 225 219 215 224 233 234 228 220 221 224 223 222 222 226 226 227 223 226 216 220 223 211 201 166 236 239 235 232 225 220 219 222
354 358 23 18 339 286 281 259 240 246 244 231 235 221 224 232 230 236 240 236 230 223 232 227 228 229 227 232 228 224 215 214 213 212 182 193 221 183 225 226 222 219 219
312 58 44 47 36 334 277 262 250 241 234 240 236 220 208 205 225 233 237 245 248 253 243 240 234 235 231 233 233 234 222 216 206 214 219 236 207 181 210 220 218 218 219
127 106 102 111 95 59 42 337 274 262 256 253 255 257 267 259 235 229 232 237 253 258 258 253 241 239 239 238 241 237 231 220 211 207 216 230 243 240 179 194 210 217 217
127 126 136 122 102 72 56 46 60 44 312 262 255 258 261 263 277 246 240 251 257 258 256 250 246 248 250 246 249 250 244 235 221 217 216 216 213 225 211 220 176 197 203
130 126 102 107 89 70 47 42 35 44 31 25 324 265 262 264 267 277 261 258 261 266 259 255 262 265 262 261 259 258 255 245 235 223 229 231 231 224 224 207 144 147 148
117 102 99 87 96 73 55 40 33 37 29 25 15 7 331 297 281 281 284 278 276 295 269 257 260 268 269 268 265 263 256 249 247 238 234 235 231 230 220 207 187 107 59
118 98 89 72 62 61 53 45 38 40 29 22 10 12 34 50 13 333 317 320 315 323 332 260 271 277 274 273 273 269 267 258 248 240 236 231 221 225 226 222 216 180 187
126 107 91 85 70 63 50 51 43 42 33 28 18 13 2 348 345 353 2 357 355 329 308 307 297 294 280 284 281 280 273 257 245 238 233 220 216 217 217 205 200 197 154
109 95 88 96 87 78 66 62 51 49 40 36 41 46 46 51 64 60 44 45 53 1 48 32 10 349 353 308 290 280 272 259 239 224 216 213 218 216 209 197 189 176 179
108 107 99 102 93 81 68 63 53 50 43 42 64 57 58 67 69 68 67 68 67 51 66 79 41 0 3 351 339 267 251 226 211 207 197 179 173 156 150 155 157 169 170
144 137 122 105 99 87 76 69 58 51 51 56 65 65 63 64 61 60 61 70 70 73 75 77 72 58 58 59 65 70 90 111 125 152 150 148 151 143 144 147 150 148 139
151 154 132 122 114 99 87 73 65 59 59 66 69 67 66 67 66 65 66 69 69 73 74 73 75 72 78 82 93 100 106 112 113 118 124 128 135 136 140 135 144 140 115
153 159 136 131 142 132 107 95 83 73 70 73 70 66 70 72 72 70 71 71 75 77 79 81 78 77 76 80 96 105 110 112 113 110 107 108 116 116 98 81 109 131 130
152 137 132 138 137 130 122 109 88 80 86 80 78 77 79 80 84 84 81 85 89 93 89 86 86 82 84 91 106 113 111 112 107 100 102 103 98 96 83 147 165 157 79
162 165 155 151 126 120 122 113 102 97 91 88 86 87 83 83 89 89 90 96 94 102 99 95 96 89 84 86 95 104 108 110 106 102 95 80 79 82 93 64 288 4 308
158 135 129 134 140 139 126 123 114 105 99 95 92 90 88 96 101 105 110 107 107 101 97 96 96 92 85 88 91 96 98 96 96 97 102 90 61 32 71 25 335 281 317
153 146 147 145 142 131 126 124 113 106 104 101 108 112 116 114 111 118 118 115 105 99 96 92 90 92 89 83 79 74 78 82 77 76 67 55 67 36 15 339 357 317 307
123 119 124 139 143 136 145 132 121 125 118 126 120 122 128 128 124 129 121 108 108 99 96 98 93 91 89 74 62 40 44 69 71 67 34 42 40 9 353 340 317 334 332
119 129 142 154 149 156 147 133 136 133 137 137 130 132 136 134 132 128 121 114 105 101 100 96 97 90 77 75 60 55 57 56 51 53 25 2 2 349 342 330 296 309 312
135 151 143 136 144 154 159 145 139 143 144 138 137 133 135 140 137 126 121 118 114 114 114 112 109 96 87 76 57 46 42 35 39 20 351 300 329 325 323 313 330 324 321
157 151 147 139 143 157 164 149 148 147 148 147 143 142 139 136 129 129 130 139 139 134 124 128 128 98 90 16 18 15 20 13 7 346 331 326 327 327 329 329 327 336 337
153 164 164 146 166 162 159 159 155 155 150 152 150 147 150 146 145 142 145 139 134 131 136 137 126 114 115 80 64 24 31 11 354 324 315 325 327 329 319 330 334 321 318
166 178 166 166 168 160 164 168 162 162 167 167 161 158 155 152 144 135 127 155 143 146 161 147 158 148 144 7 359 351 344 337 336 325 337 338 332 334 336 326 325 320 321
170 178 178 169 171 169 175 173 175 178 175 169 168 167 165 165 167 155 132 125 135 156 161 166 191 183 275 274 306 332 330 329 328 330 324 324 337 331 327 325 323 320 317